EN

Hourly Weather Novohazino

Today, 14 May, Friday

Time Temperature Precipitation Wind Pressure Humidity
00:00 +20°C° 0 mm 1 mps 760 mmHg 53%
01:00 +19°C° 0 mm 1 mps 760 mmHg 55%
02:00 +19°C° 0 mm 1 mps 760 mmHg 56%
03:00 +17°C° 0 mm 2 mps 760 mmHg 58%
04:00 +17°C° 0 mm 2 mps 760 mmHg 59%
05:00 +18°C° 0 mm 2 mps 760 mmHg 59%
06:00 +19°C° 0 mm 2 mps 760 mmHg 58%
07:00 +20°C° 0 mm 2 mps 760 mmHg 57%
08:00 +22°C° 0 mm 3 mps 760 mmHg 51%
09:00 +25°C° 0 mm 3 mps 760 mmHg 45%
10:00 +27°C° 0 mm 4 mps 760 mmHg 38%
11:00 +28°C° 0 mm 4 mps 760 mmHg 36%
12:00 +28°C° 0 mm 4 mps 760 mmHg 33%
13:00 +29°C° 0 mm 4 mps 759 mmHg 31%
14:00 +29°C° 0 mm 4 mps 759 mmHg 32%
15:00 +29°C° 0 mm 4 mps 759 mmHg 32%
16:00 +30°C° 0 mm 4 mps 759 mmHg 33%
17:00 +28°C° 0 mm 4 mps 759 mmHg 39%
18:00 +27°C° 0 mm 3 mps 758 mmHg 45%
19:00 +26°C° 0 mm 3 mps 758 mmHg 52%
20:00 +24°C° 0 mm 3 mps 758 mmHg 54%
21:00 +22°C° 0 mm 3 mps 758 mmHg 56%
22:00 +20°C° 0 mm 3 mps 758 mmHg 58%
23:00 +20°C° 0 mm 3 mps 758 mmHg 57%

Tomorrow, 15 May, Saturday

Time Temperature Precipitation Wind Pressure Humidity
00:00 +19°C° 0 mm 3 mps 758 mmHg 57%
01:00 +19°C° 0 mm 3 mps 758 mmHg 56%
02:00 +18°C° 0 mm 3 mps 758 mmHg 57%
03:00 +18°C° 0 mm 3 mps 758 mmHg 58%
04:00 +17°C° 0 mm 3 mps 758 mmHg 59%
05:00 +18°C° 0 mm 3 mps 758 mmHg 59%
06:00 +19°C° 0 mm 3 mps 758 mmHg 59%
07:00 +20°C° 0 mm 3 mps 758 mmHg 59%
08:00 +22°C° 0 mm 3 mps 758 mmHg 52%
09:00 +25°C° 0 mm 4 mps 758 mmHg 45%
10:00 +27°C° 0 mm 4 mps 758 mmHg 39%
11:00 +28°C° 0 mm 4 mps 758 mmHg 37%
12:00 +29°C° 0 mm 4 mps 758 mmHg 34%
13:00 +30°C° 0 mm 5 mps 758 mmHg 32%
14:00 +30°C° 0 mm 5 mps 757 mmHg 33%
15:00 +30°C° 0 mm 5 mps 757 mmHg 34%
16:00 +32°C° 0 mm 5 mps 757 mmHg 34%
17:00 +29°C° 0 mm 4 mps 757 mmHg 40%
18:00 +28°C° 0 mm 3 mps 757 mmHg 46%
19:00 +26°C° 0 mm 3 mps 756 mmHg 52%
20:00 +25°C° 0 mm 3 mps 756 mmHg 54%
21:00 +22°C° 0 mm 3 mps 756 mmHg 55%
22:00 +21°C° 0 mm 3 mps 756 mmHg 57%
23:00 +20°C° 0 mm 3 mps 756 mmHg 57%

Day after tomorrow, 16 May, Sunday

Time Temperature Precipitation Wind Pressure Humidity
00:00 +20°C° 0 mm 3 mps 756 mmHg 56%
01:00 +19°C° 0 mm 2 mps 756 mmHg 56%
02:00 +19°C° 0 mm 2 mps 757 mmHg 56%
03:00 +18°C° 0 mm 2 mps 757 mmHg 56%
04:00 +18°C° 0 mm 2 mps 757 mmHg 56%
05:00 +19°C° 0 mm 2 mps 757 mmHg 56%
06:00 +20°C° 0 mm 2 mps 757 mmHg 55%
07:00 +21°C° 0 mm 2 mps 757 mmHg 55%
08:00 +24°C° 0 mm 3 mps 757 mmHg 50%
09:00 +26°C° 0 mm 3 mps 757 mmHg 44%
10:00 +29°C° 0 mm 4 mps 757 mmHg 38%
11:00 +29°C° 0 mm 4 mps 757 mmHg 35%
12:00 +30°C° 0 mm 5 mps 757 mmHg 32%
13:00 +32°C° 0 mm 5 mps 757 mmHg 29%
14:00 +32°C° 0 mm 5 mps 756 mmHg 29%
15:00 +32°C° 0 mm 5 mps 756 mmHg 30%
16:00 +32°C° 0 mm 4 mps 756 mmHg 31%
17:00 +30°C° 0 mm 4 mps 756 mmHg 36%
18:00 +29°C° 0 mm 3 mps 755 mmHg 41%
19:00 +27°C° 0 mm 2 mps 755 mmHg 46%
20:00 +26°C° 0 mm 2 mps 755 mmHg 48%
21:00 +24°C° 0 mm 3 mps 755 mmHg 50%
22:00 +22°C° 0 mm 3 mps 755 mmHg 51%
23:00 +21°C° 0 mm 3 mps 755 mmHg 52%

17 May, Monday

Time Temperature Precipitation Wind Pressure Humidity
00:00 +21°C° 0 mm 3 mps 755 mmHg 53%
01:00 +20°C° 0 mm 3 mps 755 mmHg 54%
02:00 +19°C° 0 mm 3 mps 755 mmHg 54%
03:00 +19°C° 0 mm 3 mps 755 mmHg 55%
04:00 +19°C° 0 mm 2 mps 755 mmHg 56%
05:00 +20°C° 0 mm 2 mps 755 mmHg 56%
06:00 +21°C° 0 mm 2 mps 755 mmHg 57%
07:00 +23°C° 0 mm 2 mps 756 mmHg 58%
08:00 +24°C° 0 mm 2 mps 756 mmHg 53%
09:00 +26°C° 0 mm 3 mps 756 mmHg 49%
10:00 +27°C° 0 mm 3 mps 756 mmHg 45%
11:00 +28°C° 0 mm 4 mps 756 mmHg 42%
12:00 +29°C° 0 mm 4 mps 755 mmHg 40%
13:00 +30°C° 0 mm 5 mps 755 mmHg 38%
14:00 +30°C° 0 mm 5 mps 755 mmHg 37%
15:00 +30°C° 0 mm 4 mps 755 mmHg 37%
16:00 +32°C° 0 mm 4 mps 755 mmHg 37%
17:00 +29°C° 0 mm 4 mps 755 mmHg 43%
18:00 +28°C° 0 mm 3 mps 754 mmHg 48%
19:00 +27°C° 0 mm 3 mps 754 mmHg 53%
20:00 +25°C° 0 mm 2 mps 754 mmHg 56%
21:00 +24°C° 0 mm 2 mps 754 mmHg 58%
22:00 +23°C° 0 mm 2 mps 754 mmHg 61%
23:00 +21°C° 0 mm 2 mps 754 mmHg 63%

18 May, Tuesday

Time Temperature Precipitation Wind Pressure Humidity
00:00 +20°C° 0 mm 2 mps 754 mmHg 66%
01:00 +19°C° 0 mm 2 mps 755 mmHg 68%
02:00 +20°C° 0 mm 1 mps 755 mmHg 70%
03:00 +19°C° 0 mm 1 mps 755 mmHg 73%
04:00 +19°C° 0 mm 1 mps 755 mmHg 75%
05:00 +20°C° 0 mm 1 mps 755 mmHg 72%
06:00 +21°C° 0 mm 1 mps 755 mmHg 69%
07:00 +23°C° 0 mm 1 mps 755 mmHg 65%
08:00 +24°C° 0 mm 1 mps 755 mmHg 61%
09:00 +26°C° 0 mm 1 mps 755 mmHg 56%
10:00 +27°C° 0 mm 2 mps 755 mmHg 52%
11:00 +28°C° 0 mm 2 mps 755 mmHg 48%
12:00 +29°C° 0 mm 2 mps 755 mmHg 44%
13:00 +30°C° 0 mm 2 mps 755 mmHg 40%
14:00 +31°C° 0 mm 3 mps 755 mmHg 38%
15:00 +31°C° 0 mm 3 mps 755 mmHg 35%
16:00 +31°C° 0 mm 3 mps 754 mmHg 33%
17:00 +30°C° 0 mm 3 mps 754 mmHg 38%
18:00 +29°C° 0 mm 2 mps 754 mmHg 43%
19:00 +27°C° 0 mm 1 mps 754 mmHg 48%
20:00 +26°C° 0 mm 1 mps 754 mmHg 51%
21:00 +24°C° 0 mm 1 mps 755 mmHg 55%
22:00 +23°C° 0 mm 1 mps 755 mmHg 58%
23:00 +22°C° 0 mm 1 mps 755 mmHg 61%

19 May, Wednesday

Time Temperature Precipitation Wind Pressure Humidity
00:00 +21°C° 0 mm 1 mps 755 mmHg 65%
01:00 +20°C° 0 mm 1 mps 755 mmHg 68%
02:00 +19°C° 0 mm 2 mps 756 mmHg 72%
03:00 +18°C° 0 mm 2 mps 756 mmHg 76%
04:00 +17°C° 0 mm 2 mps 756 mmHg 79%
05:00 +18°C° 0 mm 2 mps 756 mmHg 76%
06:00 +20°C° 0 mm 2 mps 756 mmHg 72%
07:00 +21°C° 0 mm 2 mps 757 mmHg 68%
08:00 +24°C° 0 mm 2 mps 757 mmHg 63%
09:00 +25°C° 0 mm 3 mps 757 mmHg 58%
10:00 +27°C° 0 mm 3 mps 757 mmHg 53%
11:00 +28°C° 0 mm 3 mps 757 mmHg 49%
12:00 +29°C° 0 mm 2 mps 757 mmHg 45%
13:00 +30°C° 0 mm 2 mps 757 mmHg 41%
14:00 +30°C° 0 mm 2 mps 757 mmHg 38%
15:00 +31°C° 0 mm 2 mps 756 mmHg 35%
16:00 +31°C° 0 mm 2 mps 756 mmHg 32%
17:00 +30°C° 0 mm 2 mps 756 mmHg 38%
18:00 +28°C° 0 mm 2 mps 756 mmHg 43%
19:00 +27°C° 0 mm 2 mps 756 mmHg 49%
20:00 +25°C° 0 mm 2 mps 756 mmHg 52%
21:00 +24°C° 0 mm 2 mps 756 mmHg 55%
22:00 +22°C° 0 mm 1 mps 756 mmHg 58%
23:00 +21°C° 0 mm 2 mps 756 mmHg 59%
Show more

We Need Your Consent

Meteoprog and our Service Providers may store and access personal data such as cookies, device identifiers or other similar technologies on your device and process such data to personalise content and ads, as well as provide social media features and to analyse the traffic.

  • Store and/or access information on your device

    Cookies, device identifiers or other information can be stored or accessed on your device for the purposes indicated above.

  • Personalised ads and content, ad and content measurement, audience insights, and products development

    Ads and content can be personalised based on a profile. More data can be added to better personalise ads and content. Ad and content performance can be measured. Insights about the audience who saw the ads and content can be derived. Such data can be used to develop or improve user’s experience, systems and software.

By clicking ‘I Agree’ you will allow the use of indicated cookies, device identifiers, web beacons or other similar technologies. Your settings can be changed in the browser on your device.

For certain purposes, legitimate interests may be relied on, rather than consent. You can read more about this in our Privacy and Cookie Policy.